EHI
24 24 23 16 6 1 0 0 0 0 0 0 0 0 0 0 0 0 0 1 2 2 1 1 2 1 1 2 2 1 0 0 0 0 0 0 0 0 0 0 0 0 0 0 0 0 0 0 0
22 21 19 12 4 0 0 0 0 0 0 0 0 0 0 0 0 0 0 1 2 2 1 1 2 1 0 1 1 0 0 0 0 0 0 0 0 0 0 0 0 0 0 0 0 0 0 0 0
22 19 13 6 1 0 0 0 0 0 0 0 0 0 0 0 0 0 0 1 2 1 1 2 2 1 0 0 0 0 0 0 0 0 0 0 0 0 0 0 0 0 0 0 0 0 0 0 0
22 17 8 2 0 0 0 0 0 0 0 0 0 0 0 0 0 0 0 1 1 1 0 1 2 2 1 0 0 0 0 0 0 0 0 0 0 0 0 0 0 0 0 0 0 0 0 0 0
18 11 3 0 0 0 0 0 0 0 0 0 0 0 0 0 0 0 0 0 0 0 0 1 2 2 1 0 0 0 0 0 0 0 0 0 0 0 0 0 0 0 0 0 0 0 0 0 0
9 5 1 0 0 0 0 0 0 0 0 0 0 0 0 0 0 0 0 0 0 0 0 1 2 1 0 0 0 0 0 0 0 0 0 0 0 0 0 0 0 0 0 0 0 0 0 0 0
3 1 0 0 0 0 0 0 0 0 0 0 0 0 0 0 0 0 0 0 0 0 0 0 1 0 0 0 0 0 0 0 0 0 0 0 0 0 0 0 0 0 0 0 0 0 0 0 0
3 1 0 0 0 0 0 0 0 0 0 0 0 0 1 1 1 0 0 0 0 1 0 0 0 0 0 0 0 0 0 0 0 0 0 0 1 0 0 0 0 0 0 0 0 0 0 0 0
3 1 0 0 0 0 0 0 0 0 0 0 0 1 2 2 1 0 0 0 0 0 0 0 0 0 0 0 0 0 0 0 0 0 0 0 0 0 0 0 0 0 0 0 0 0 0 0 0
1 0 0 0 0 0 0 0 0 0 0 0 1 2 3 2 1 0 0 0 0 0 0 0 0 0 0 0 0 0 0 0 0 0 0 0 0 0 0 0 0 0 0 0 0 0 0 0 0
0 0 0 0 0 0 0 0 0 0 0 1 1 2 2 1 0 0 0 0 0 0 0 0 0 0 0 0 0 0 0 0 0 0 0 0 0 0 0 0 0 0 0 0 0 0 0 0 0
0 0 0 0 0 0 0 0 0 0 0 1 2 2 1 0 0 0 0 0 0 0 0 0 0 0 0 0 0 0 0 0 0 0 0 0 0 0 0 0 0 0 0 0 0 0 0 0 0
0 0 0 0 0 0 0 0 0 0 0 1 1 1 0 0 0 0 0 0 0 0 0 0 0 0 0 0 0 0 0 0 0 0 0 0 0 0 0 0 0 0 0 0 0 0 0 0 0
0 0 0 0 0 0 0 0 0 0 0 0 1 2 1 0 0 0 0 0 0 1 0 0 0 0 0 0 0 0 0 0 0 0 0 0 0 0 0 0 0 0 0 0 0 0 0 0 0
0 0 0 0 0 0 0 0 0 0 0 0 1 2 2 1 0 0 0 0 0 0 0 0 0 0 0 0 0 0 0 0 0 0 0 0 0 0 0 0 0 0 0 0 0 0 0 0 0
0 0 0 0 0 0 0 0 0 0 0 0 0 1 1 1 0 0 0 0 0 0 0 0 0 0 0 0 0 0 0 0 0 0 0 0 0 0 0 0 0 0 0 0 0 0 0 0 0
0 0 0 0 0 0 0 0 0 0 0 1 0 0 0 0 0 0 0 0 0 0 0 0 0 0 0 1 1 0 0 0 0 0 0 0 0 0 0 0 0 0 0 0 0 0 0 0 0
0 0 0 0 0 0 0 0 0 0 0 0 0 0 0 0 0 1 1 1 0 0 0 0 0 0 0 1 1 1 0 0 0 0 0 0 0 0 0 0 0 0 0 0 0 0 0 0 0
0 0 0 0 0 0 0 0 0 0 0 0 0 0 0 0 1 2 2 1 0 0 0 0 0 0 0 0 1 1 0 0 0 0 0 0 0 0 0 0 0 0 0 0 0 0 0 0 0
0 0 0 0 0 0 0 0 0 0 0 0 0 0 0 0 1 2 2 1 1 1 1 0 0 0 0 0 0 0 0 0 0 0 1 0 0 0 0 0 0 0 0 0 0 0 0 0 0
0 0 0 0 0 0 0 0 0 0 0 0 0 0 0 0 1 2 3 2 1 2 1 0 0 0 0 0 0 0 0 0 0 0 0 0 0 0 0 0 0 0 0 0 0 0 0 0 0
0 0 0 0 0 0 0 0 0 0 1 1 1 0 0 0 1 2 3 2 2 1 1 0 0 0 0 0 0 0 0 0 0 0 0 0 0 0 0 0 0 0 0 0 0 0 0 0 0
0 0 0 0 0 0 0 0 0 1 1 1 1 0 0 0 0 1 3 3 2 1 1 1 0 0 1 0 0 0 0 0 0 0 0 0 0 0 0 0 0 0 0 0 0 0 0 0 0
0 0 0 0 0 0 0 0 0 0 0 0 0 0 0 0 0 1 2 3 3 4 4 2 0 0 0 0 0 0 0 0 0 0 0 0 0 0 0 0 0 0 0 0 0 0 0 0 0
0 0 0 0 0 0 0 0 0 0 0 0 0 0 0 0 0 0 1 3 4 6 5 2 1 0 0 0 0 0 0 0 0 0 0 0 0 0 0 0 0 0 0 0 0 0 0 0 0
0 0 0 0 0 0 0 0 0 0 0 0 0 0 0 0 0 0 1 2 4 5 4 3 2 1 0 0 0 0 0 0 0 0 0 0 0 0 0 0 0 0 0 0 0 0 0 0 0
0 0 0 0 0 0 0 0 0 0 0 0 0 0 0 0 0 0 1 2 3 3 3 3 3 2 1 0 0 0 0 0 0 0 0 0 0 0 0 0 0 0 0 0 0 0 0 0 0
0 0 0 0 0 0 0 0 0 0 0 0 0 0 0 0 0 0 0 1 1 3 3 3 3 3 2 1 0 0 0 0 0 0 0 0 0 0 0 0 0 0 0 0 0 0 0 0 0
0 0 0 0 0 0 0 0 0 0 0 0 0 0 0 0 0 0 0 1 1 3 3 3 2 3 2 1 1 1 0 0 0 0 0 0 0 0 0 0 0 0 0 0 0 0 0 0 0
0 0 0 0 0 0 0 0 0 0 0 0 0 0 0 0 0 0 1 2 2 3 3 2 1 2 2 2 2 2 1 0 0 0 0 0 0 0 0 0 0 0 0 0 0 0 0 0 0
Wind_Speed
10 10 6 2 2 1 6 7 8 8 9 9 10 10 13 13 9 8 2 5 7 8 9 9 9 9 9 9 10 10 10 11 11 11 11 11 11 10 10 10 10 10 10 10 10 9 9 8 8
10 6 3 3 1 3 7 7 9 9 7 6 9 12 13 12 11 8 4 4 7 9 9 9 9 9 9 10 10 10 11 11 11 11 11 10 11 10 10 10 10 10 10 10 10 9 9 9 8
11 7 4 1 3 6 7 7 8 8 8 7 9 11 10 8 9 6 4 5 9 10 10 9 9 9 9 10 11 10 10 11 11 11 10 10 10 10 9 10 9 10 10 10 10 9 9 9 8
6 4 2 2 8 10 8 7 7 8 8 8 9 10 10 9 8 7 5 7 9 9 10 8 9 9 10 10 10 10 10 10 10 10 10 10 10 10 9 10 9 9 9 9 9 9 9 9 9
4 2 1 5 9 10 8 8 8 9 9 11 12 11 10 10 9 8 5 7 8 9 9 9 10 10 10 10 10 10 10 10 10 9 10 10 10 9 9 9 9 9 9 10 9 9 10 9 9
3 1 1 6 9 8 8 8 8 10 10 10 11 11 8 8 7 6 6 6 7 8 9 9 10 10 10 10 10 10 9 9 8 8 8 9 9 8 9 9 9 9 10 9 9 10 10 9 9
2 1 4 8 8 7 8 7 7 8 9 8 8 9 8 8 6 5 5 6 5 6 7 7 8 9 10 10 9 8 8 7 7 7 6 7 7 8 9 9 9 10 9 9 9 9 9 9 9
2 1 4 6 7 7 6 7 7 8 7 6 6 8 7 8 6 5 5 5 5 5 5 5 7 8 8 7 9 8 7 6 5 4 4 5 6 7 9 9 9 9 9 9 9 8 8 8 7
1 1 5 6 6 6 6 7 7 7 8 10 10 11 11 10 8 5 4 4 4 5 4 4 5 5 6 7 8 7 7 5 4 3 3 3 2 4 5 8 8 8 8 7 7 6 6 5 4
1 3 7 6 6 6 6 7 7 6 7 9 11 11 10 8 6 6 5 5 5 4 4 4 4 4 4 4 5 3 4 4 3 2 2 2 3 4 6 7 7 7 6 5 4 4 3 2 1
4 6 7 7 7 6 6 7 7 6 6 7 9 9 8 6 4 5 5 5 5 5 4 4 4 4 5 3 3 2 2 1 2 2 3 2 3 3 4 3 3 3 3 1 2 1 1 1 2
6 6 6 6 6 5 6 7 7 7 7 8 9 9 7 5 4 4 6 6 5 5 4 4 4 4 5 4 3 2 1 1 2 2 3 3 2 2 3 2 2 2 1 2 2 2 3 3 4
6 6 6 5 5 5 6 6 7 7 6 8 9 8 6 5 4 4 5 6 6 5 4 5 4 5 5 4 2 3 2 2 2 2 2 3 2 2 2 3 2 2 2 2 2 3 4 5 5
5 5 5 5 5 4 6 5 6 6 7 7 8 6 6 4 3 3 4 6 6 5 4 5 4 5 5 3 2 3 3 3 3 2 2 4 3 3 2 3 3 2 2 2 3 4 4 4 4
4 4 5 5 5 4 4 4 5 6 6 6 7 7 6 4 4 3 4 5 5 5 6 5 4 5 5 4 4 3 3 3 3 2 3 3 3 3 3 3 3 2 2 4 3 4 3 4 4
5 4 3 4 4 3 2 3 5 6 6 5 5 6 5 4 3 3 4 5 5 5 6 5 4 5 5 4 4 2 3 3 2 2 2 3 3 5 4 3 2 3 3 3 3 3 3 3 3
4 3 3 4 3 3 3 3 4 5 6 5 6 6 5 5 4 3 4 4 5 5 6 5 4 5 5 4 3 3 3 2 2 2 3 3 4 4 4 2 2 3 3 2 3 3 3 3 2
2 0 1 3 3 2 3 3 4 4 4 4 4 5 6 6 5 4 4 4 4 4 6 6 4 4 5 3 3 2 2 2 2 2 2 3 3 4 3 2 3 3 3 3 3 3 2 2 1
4 2 1 2 2 1 3 3 3 4 3 3 3 3 4 6 5 5 4 3 4 3 4 6 4 4 4 2 2 2 1 2 2 2 2 2 3 3 3 3 3 3 3 3 3 2 2 1 1
4 3 1 2 2 1 2 4 4 5 4 3 3 4 4 4 5 5 4 3 3 3 3 5 4 5 4 2 1 1 2 1 2 2 2 3 3 3 2 3 3 3 2 3 3 2 2 1 1
2 2 2 2 2 4 3 2 5 6 5 4 2 3 4 4 5 6 4 4 3 4 3 4 4 5 4 3 2 2 2 1 2 2 2 2 3 3 3 2 2 3 3 2 2 2 1 1 1
2 2 3 4 5 4 5 2 4 6 5 4 3 3 4 4 4 5 4 4 3 4 3 4 4 4 4 4 2 1 2 1 1 2 2 1 2 2 2 2 2 2 3 3 2 2 1 1 1
3 3 6 6 6 6 5 3 3 5 4 4 4 4 4 5 5 5 4 3 3 4 3 3 4 4 4 3 2 1 2 1 1 2 2 2 2 2 1 2 2 2 2 2 2 2 2 1 1
4 6 8 7 5 5 4 2 2 3 3 4 4 4 5 6 5 5 5 4 4 4 3 3 3 3 3 2 2 2 2 2 2 2 2 2 2 1 1 2 1 2 2 2 2 2 2 1 2
4 5 3 3 3 2 1 2 3 5 4 4 4 4 5 6 5 5 5 4 4 4 3 2 3 3 2 2 3 3 3 2 2 2 2 2 2 1 1 2 1 1 2 2 2 2 2 2 2
5 4 3 3 2 1 1 2 5 7 6 5 5 5 5 5 4 4 5 4 4 4 3 2 3 2 2 2 2 3 3 1 1 2 2 2 2 2 2 2 2 2 2 2 2 1 1 1 2
4 3 4 5 6 4 1 5 5 6 5 5 5 5 5 5 5 4 4 4 4 4 3 3 2 2 2 3 2 2 2 1 1 1 2 2 2 3 3 3 3 3 2 2 2 1 1 1 2
6 6 3 3 3 3 1 3 3 4 3 4 5 4 4 5 5 4 4 3 3 3 3 3 3 2 2 2 1 2 2 2 1 0 1 2 2 2 3 3 3 3 3 2 2 1 2 2 1
4 5 4 3 3 3 2 2 4 6 4 3 4 4 5 5 4 4 4 3 3 4 3 2 2 1 1 2 2 2 2 2 2 1 1 1 2 2 3 3 3 3 3 3 2 2 1 1 1
4 5 4 3 3 3 3 1 5 5 5 4 4 5 5 5 4 4 4 3 3 3 3 3 2 2 2 1 1 1 2 2 2 2 2 2 1 1 2 2 2 2 3 3 3 2 2 1 1
Wind_Direction
275 252 241 258 248 114 66 62 60 48 55 47 51 63 63 52 52 84 109 78 90 95 95 82 66 63 62 64 66 66 67 65 67 67 66 66 69 72 74 77 75 73 71 69 68 67 70 75 77
280 274 258 235 254 88 71 68 67 57 64 67 60 66 70 65 73 94 103 88 91 90 87 80 74 70 69 71 71 70 69 68 67 67 66 65 70 75 75 77 76 73 70 69 67 65 70 72 73
265 265 259 268 44 63 74 72 78 67 56 65 72 61 55 66 73 92 111 112 93 89 89 86 80 78 75 74 73 73 70 70 70 68 68 67 69 73 77 79 78 76 74 72 69 66 67 69 70
266 256 245 66 69 67 73 81 84 82 68 62 75 75 68 61 80 98 109 101 97 99 100 97 90 86 84 80 77 75 72 71 69 69 67 67 69 72 75 77 78 79 79 79 74 69 68 68 64
244 257 98 82 74 71 69 72 78 77 71 72 78 87 85 81 91 101 100 95 101 104 107 108 106 99 93 86 82 78 75 71 69 69 68 68 70 74 76 75 74 77 77 78 79 75 71 67 60
273 255 92 84 81 73 66 65 71 81 86 91 95 97 94 101 93 92 94 94 99 109 113 121 122 113 104 94 88 86 80 75 72 72 72 72 74 78 82 79 77 79 78 78 79 77 73 68 60
306 347 84 94 93 80 69 61 64 71 76 75 95 101 110 106 109 112 104 104 103 108 119 132 141 129 119 109 101 98 94 85 81 80 81 83 82 83 88 84 81 82 82 81 80 78 76 72 64
306 345 84 87 92 87 83 78 75 74 73 70 84 103 121 126 130 121 115 113 115 110 114 123 135 140 138 130 124 123 121 114 108 104 100 100 99 93 93 90 87 86 87 86 85 84 81 78 70
305 62 73 77 80 94 96 89 84 87 84 71 72 87 112 131 131 131 124 108 99 99 116 118 120 129 135 138 138 149 150 152 149 160 165 164 144 114 99 95 98 95 93 95 95 95 95 90 76
60 70 74 76 78 89 94 93 93 93 90 92 93 97 117 131 134 132 125 118 113 112 118 116 119 119 112 103 129 151 147 155 176 159 151 162 109 92 101 108 110 113 110 112 121 124 128 132 109
73 72 71 79 83 85 91 92 90 94 95 98 111 118 123 128 125 117 115 108 114 116 103 108 105 100 99 96 102 96 93 119 121 111 109 87 103 124 121 135 140 146 143 129 126 137 105 85 79
84 82 79 78 81 86 84 82 78 74 83 104 108 120 129 127 115 115 111 103 98 89 92 92 86 95 94 87 91 104 90 94 83 67 87 81 69 93 112 108 109 115 98 66 55 57 61 55 64
92 92 93 98 100 103 95 93 92 88 93 103 111 120 125 110 97 96 106 107 108 111 108 94 83 84 86 80 84 98 77 57 80 57 81 90 74 71 85 101 93 82 86 87 66 56 56 53 49
94 102 111 109 102 109 107 109 107 108 115 118 119 121 113 104 95 94 112 109 109 110 108 99 92 84 91 91 83 82 85 74 52 37 59 90 93 83 66 82 78 77 69 71 75 70 62 63 55
153 160 140 137 134 127 111 92 110 127 127 128 131 126 122 125 123 120 109 110 110 111 98 82 90 89 83 73 61 73 68 73 62 26 26 70 81 85 78 75 78 72 70 69 64 70 66 73 67
206 193 151 140 150 157 164 109 112 134 138 137 133 128 123 115 117 110 96 98 106 106 102 97 81 85 86 84 66 67 70 65 66 41 20 44 70 85 72 63 74 75 68 73 77 61 68 66 61
216 189 149 143 155 157 135 119 129 148 152 152 147 145 144 136 125 111 104 98 99 107 109 100 80 86 85 85 90 65 70 73 71 56 26 25 52 81 86 68 64 76 73 64 74 61 63 74 71
285 169 153 129 143 153 131 128 140 148 158 154 148 148 148 142 137 116 97 99 107 112 115 108 101 91 94 71 72 75 55 51 61 70 50 38 38 66 85 96 76 71 75 73 81 85 78 88 85
309 313 75 97 129 159 125 121 130 140 149 146 145 140 142 137 124 114 120 120 124 116 115 117 125 108 95 84 73 74 66 58 50 53 65 53 45 63 76 72 74 72 76 77 86 72 76 67 75
280 289 81 120 131 194 147 142 135 132 138 146 149 144 130 124 128 121 124 128 131 124 118 119 113 108 99 95 106 112 100 95 96 57 44 42 47 56 79 98 99 95 88 71 74 74 44 36 60
285 333 348 329 283 242 208 169 146 135 124 122 135 139 135 136 141 138 141 123 126 126 121 113 116 112 112 106 76 86 92 82 85 81 58 43 46 42 42 63 98 118 122 111 102 99 93 38 345
311 356 287 267 270 250 223 200 158 148 137 132 136 141 138 133 131 129 132 132 131 129 127 117 114 111 107 104 79 86 103 105 123 125 121 97 79 66 31 52 79 102 106 113 125 113 95 84 5
324 312 279 272 270 275 240 216 145 143 139 143 146 154 146 137 136 133 130 128 117 109 112 111 108 103 102 105 104 71 88 102 105 113 113 108 88 78 47 61 62 81 104 113 104 97 79 84 61
278 273 261 250 256 268 248 202 123 137 134 142 146 148 147 142 138 134 126 121 108 101 102 109 110 107 112 129 147 144 129 133 123 119 131 134 121 107 104 99 95 88 96 103 102 104 100 77 50
264 281 278 228 214 238 154 113 92 98 98 116 137 145 146 141 140 138 134 134 123 121 119 118 119 126 148 169 175 159 164 167 151 143 159 151 139 142 156 131 124 107 100 98 92 98 107 108 90
251 260 291 311 306 322 140 108 98 93 88 94 113 124 127 125 128 134 137 137 136 139 144 155 144 154 171 199 192 166 161 172 143 151 157 149 148 149 140 148 140 117 105 104 98 85 86 96 100
283 263 277 293 295 292 151 114 110 98 98 98 108 116 118 129 130 129 129 136 143 152 160 166 160 168 195 213 187 159 155 152 164 177 152 140 141 139 142 144 130 125 121 112 107 98 94 71 69
275 302 300 276 298 295 226 142 150 135 115 116 121 127 133 136 135 135 141 146 146 148 152 163 171 182 197 220 192 160 160 166 182 135 129 143 144 138 147 156 141 136 131 116 99 85 93 91 90
232 251 272 290 289 293 314 65 101 127 127 135 135 139 137 132 132 135 142 148 152 145 153 163 161 179 206 213 190 176 171 168 160 151 141 150 154 158 162 157 147 150 144 130 122 129 120 126 128
270 274 275 277 294 284 285 117 128 124 132 135 125 126 125 130 135 136 139 150 154 154 163 165 173 187 196 210 195 189 161 165 180 177 183 181 171 162 152 139 134 138 134 138 144 147 142 134 114